Wind_Speed
4 5 1 4 1 1 1 0 3 3 3 4 6 7 8 12 15 11 21 23 26 28 26 26 29 27 26 22 20 19 19 19 18 16 14 12 10 9 8 7 6 5 4 4
5 2 2 4 3 3 2 1 3 5 3 4 1 10 5 6 13 24 23 25 26 24 27 27 31 31 29 22 20 19 20 19 17 16 13 12 9 10 9 9 7 6 5 5
2 4 6 2 1 2 1 3 3 4 4 0 4 5 6 6 9 16 30 32 29 30 30 30 35 35 31 25 25 22 20 19 18 17 16 14 13 12 12 10 8 7 7 6
2 4 4 3 2 1 1 1 2 3 3 4 2 4 6 6 7 7 27 29 32 31 32 33 35 39 34 31 24 23 20 19 18 20 18 15 12 10 9 9 9 8 8 6
5 6 6 2 1 1 5 4 2 2 3 2 2 3 7 0 9 9 19 30 33 33 33 31 32 31 33 34 27 24 20 19 19 20 18 15 13 12 11 10 10 9 8 7
5 2 1 2 3 2 4 2 4 4 2 2 4 5 5 5 7 6 14 30 35 33 34 31 30 33 36 34 33 28 20 21 20 20 19 16 14 13 12 10 10 9 8 7
6 2 2 1 4 2 4 5 3 3 3 5 2 3 9 4 4 3 7 20 25 33 33 34 35 33 32 36 33 25 24 23 20 20 19 16 14 13 12 10 10 9 9 8
2 6 3 2 2 1 2 5 4 4 3 4 1 5 7 3 3 7 11 17 19 24 29 31 30 29 30 33 31 27 25 22 20 19 17 15 15 14 12 11 10 10 10 9
1 5 2 2 2 4 1 3 3 4 2 1 4 7 10 5 5 1 4 1 9 18 24 27 28 29 32 30 28 25 22 20 19 17 17 15 13 13 12 11 11 11 9 8
2 4 1 2 0 1 4 2 1 2 2 4 5 5 7 6 7 2 0 4 7 12 18 21 25 28 26 24 23 22 20 18 17 17 15 13 13 13 12 12 10 8 7 6
1 2 5 3 4 3 2 1 1 1 4 3 2 6 6 5 4 7 6 5 10 15 18 22 24 22 21 21 21 20 19 18 18 16 14 14 14 13 11 9 8 7 6 6
1 3 4 9 1 2 2 3 5 3 3 2 2 7 1 4 6 9 12 10 11 13 16 18 19 19 19 18 18 18 19 18 17 16 15 14 12 10 9 9 7 6 6 6
3 2 4 7 4 1 2 4 3 2 3 5 4 6 1 4 4 3 11 13 15 16 18 18 17 17 17 18 19 19 19 18 17 16 14 13 11 10 9 8 7 7 6 6
1 3 6 5 6 3 4 4 4 4 2 4 7 8 9 6 5 6 11 15 17 17 18 18 18 18 18 18 19 19 19 17 16 15 14 13 12 11 10 9 8 6 6 7
2 4 4 7 10 5 9 11 8 8 7 7 10 9 2 7 7 12 13 16 19 20 20 20 21 21 20 20 19 18 17 17 16 15 14 14 14 13 10 7 5 5 7 10
1 4 2 6 6 5 7 10 9 8 6 9 8 21 9 12 8 10 20 25 26 25 23 22 21 21 21 20 20 20 19 18 16 15 16 16 13 10 7 6 6 8 11 14
5 3 1 5 5 8 7 6 5 5 6 6 8 11 4 5 8 15 23 29 29 28 25 24 23 22 22 21 20 21 20 19 18 18 16 13 10 7 6 6 8 11 15 18
4 3 3 4 6 2 6 3 3 6 6 8 8 7 5 6 8 10 14 27 27 27 27 25 24 23 22 21 21 21 21 20 18 15 13 11 9 7 7 9 12 15 18 20
5 3 2 2 2 7 6 2 4 1 5 3 5 7 3 1 3 7 10 18 24 25 25 24 24 23 23 23 23 22 22 19 16 14 12 10 8 8 9 12 15 18 20 20
4 2 3 1 2 4 3 2 3 2 4 2 3 3 5 4 1 4 7 15 21 21 22 25 25 24 24 25 24 22 20 17 14 13 11 9 9 10 13 16 18 19 21 21
3 2 6 4 4 8 7 5 5 1 5 6 4 5 9 4 7 8 6 15 18 20 23 26 26 26 25 25 23 21 18 15 13 12 10 9 11 13 15 17 19 20 21 21
9 9 5 3 3 8 10 5 6 6 5 4 6 7 11 16 15 11 10 15 20 23 26 27 28 26 25 23 21 19 16 14 12 11 10 11 13 15 17 19 19 20 21 22
3 7 6 11 8 5 17 10 14 10 8 8 12 11 12 14 17 14 15 18 22 25 28 28 27 27 25 22 20 18 14 13 12 11 12 13 15 16 17 18 19 20 21 23
4 6 4 3 7 15 23 21 23 18 18 13 13 13 14 16 16 17 19 22 25 27 29 29 29 27 25 23 20 15 14 13 11 11 12 13 15 16 18 19 20 21 22 22
8 8 5 9 17 14 24 22 22 22 23 21 18 17 15 14 17 19 22 25 27 29 30 30 29 26 24 22 16 15 13 11 10 11 12 15 17 18 19 20 21 22 21 21
14 16 9 17 28 20 17 19 20 20 21 23 22 19 16 17 20 24 25 27 29 30 31 29 26 23 21 16 14 12 10 9 10 12 15 16 17 18 20 21 22 19 21 21
Wind_Direction
12 56 192 240 222 169 178 201 331 277 245 151 217 242 234 199 195 215 216 213 218 219 218 215 212 208 201 197 204 209 214 209 208 209 210 212 217 219 220 217 217 216 219 225
11 348 239 216 208 227 259 309 289 285 266 168 168 256 282 184 210 222 236 227 229 227 221 216 215 207 202 200 207 212 219 219 216 214 218 221 223 225 225 225 225 224 226 231
171 273 323 154 333 39 210 184 237 216 348 253 119 294 249 227 219 222 227 241 228 226 223 221 220 213 206 201 210 211 217 217 217 216 217 219 223 227 231 228 225 229 231 233
284 331 15 18 338 55 289 205 320 286 133 213 154 255 275 214 220 216 231 232 231 226 221 218 217 215 210 212 209 210 211 216 214 220 221 228 238 240 237 230 230 234 233 234
269 347 3 357 276 352 238 13 327 319 163 92 325 83 270 145 219 225 236 240 234 226 224 216 219 222 215 212 208 205 208 215 219 219 222 225 226 229 230 237 238 230 232 237
254 312 192 281 300 222 305 329 46 61 71 17 224 143 279 216 213 223 231 241 242 233 230 227 229 224 218 213 210 193 207 216 218 219 220 223 229 237 238 234 228 234 233 234
328 290 312 23 328 348 69 53 353 360 6 219 200 73 242 249 233 236 272 261 252 242 232 225 221 221 214 211 201 202 202 212 216 218 219 223 230 231 229 225 230 231 230 233
26 332 193 189 178 278 270 153 157 210 211 265 77 238 247 222 260 282 273 269 249 233 226 223 218 214 206 199 201 203 201 208 213 214 218 220 223 227 224 225 225 227 230 234
306 278 274 222 189 132 33 220 170 112 6 20 242 291 302 205 240 284 343 258 210 205 203 205 204 199 194 194 198 202 201 203 209 215 216 217 219 220 221 222 223 227 233 244
262 305 253 285 316 256 154 290 31 6 217 259 284 275 240 269 254 209 15 113 154 174 182 187 184 182 184 190 194 193 198 205 210 210 210 208 212 214 215 216 222 228 236 246
242 140 287 351 202 202 140 200 305 142 153 199 286 268 217 255 264 217 215 170 147 147 156 163 168 171 175 179 184 190 196 202 201 201 204 206 209 208 209 213 215 218 228 239
284 170 269 233 285 246 174 262 152 131 238 227 175 273 248 286 297 218 193 188 175 163 157 159 164 169 174 182 188 194 193 194 197 200 200 201 202 199 201 201 203 212 220 228
166 280 323 338 11 14 241 226 225 72 115 214 172 262 337 335 359 210 192 188 181 176 173 175 177 179 182 182 183 185 189 193 196 196 196 192 194 192 191 192 193 200 216 241
185 180 200 220 235 184 254 221 196 176 158 212 218 277 282 302 250 214 209 195 185 182 179 177 177 180 182 183 185 187 188 191 190 189 191 189 182 183 185 187 196 216 247 272
166 257 191 246 255 243 247 249 219 195 217 217 269 233 240 272 267 226 210 191 187 185 182 181 181 181 183 184 185 187 187 185 185 182 181 180 178 178 183 194 220 256 280 292
153 271 308 287 271 230 264 246 231 230 244 254 268 274 204 239 245 204 205 196 196 195 193 190 190 190 188 188 184 180 178 176 177 179 175 172 175 180 194 222 258 283 295 302
176 185 346 265 330 316 291 230 195 206 208 192 215 254 190 239 247 248 218 204 201 196 193 192 192 188 184 182 182 178 175 172 171 172 172 176 182 196 224 262 285 296 302 305
183 162 176 271 335 307 244 220 227 223 256 221 276 277 261 260 280 283 240 210 203 199 196 195 190 183 181 178 177 175 172 170 174 178 183 188 201 226 257 282 295 301 305 306
194 150 249 251 235 288 294 186 157 164 291 166 252 300 284 269 323 286 237 223 214 206 203 198 190 185 178 175 173 174 173 177 183 188 194 207 229 258 281 292 300 304 305 306
91 67 167 150 230 260 248 177 150 130 287 226 238 224 185 166 356 263 246 213 208 210 204 192 185 182 180 178 178 180 181 185 190 199 212 232 257 278 292 299 303 306 307 306
151 166 210 220 258 282 250 187 145 135 235 191 203 205 192 199 230 294 262 209 204 202 194 189 187 186 184 182 182 184 187 191 201 213 229 253 277 288 296 303 306 304 302 302
175 170 197 146 200 277 175 108 173 204 184 214 230 224 218 238 254 264 230 205 195 190 186 188 185 183 182 184 186 189 194 201 213 227 251 270 285 296 300 301 302 304 306 307
234 198 199 189 208 219 196 207 226 209 214 231 232 247 249 238 237 232 209 194 189 189 184 184 184 180 182 187 193 195 199 217 224 242 263 281 290 296 303 305 306 306 306 306
244 199 215 197 210 241 254 248 250 250 250 256 248 254 249 241 231 220 201 191 187 184 183 182 182 183 184 187 188 210 211 219 236 259 276 290 299 301 302 305 307 307 308 308
213 161 202 258 265 287 266 257 262 269 261 256 255 258 256 236 225 212 194 189 186 185 184 184 186 188 187 187 196 206 214 233 256 276 288 294 297 300 304 307 308 308 307 305
204 229 230 250 260 249 258 268 278 278 266 254 248 246 237 230 221 204 197 192 189 186 184 185 188 187 180 194 206 217 234 255 272 284 290 294 299 303 308 309 308 305 304 303
Height
1502 1508 1509 1504 1503 1503 1504 1504 1505 1498 1492 1494 1495 1495 1492 1493 1496 1498 1499 1499 1500 1501 1507 1511 1514 1518 1520 1522 1526 1530 1534 1536 1538 1540 1543 1544 1546 1548 1549 1550 1550 1551 1551 1552
1507 1508 1502 1501 1502 1504 1503 1503 1504 1499 1494 1495 1496 1495 1490 1491 1489 1493 1493 1495 1497 1500 1504 1507 1511 1514 1516 1519 1524 1527 1532 1535 1537 1540 1542 1544 1545 1547 1548 1549 1549 1550 1550 1551
1509 1505 1500 1501 1501 1501 1502 1504 1502 1502 1497 1496 1497 1500 1492 1488 1488 1490 1490 1492 1495 1497 1500 1503 1508 1511 1514 1513 1515 1522 1529 1533 1536 1539 1540 1542 1543 1545 1546 1547 1548 1549 1549 1550
1506 1503 1502 1501 1501 1503 1503 1498 1500 1501 1505 1511 1497 1515 1494 1488 1488 1488 1487 1486 1488 1491 1495 1498 1502 1505 1507 1512 1515 1520 1525 1531 1532 1535 1538 1540 1542 1543 1545 1546 1547 1547 1547 1548
1510 1505 1506 1504 1502 1503 1503 1499 1501 1498 1505 1504 1503 1517 1495 1487 1487 1483 1481 1480 1481 1485 1489 1491 1495 1501 1507 1512 1512 1517 1522 1528 1530 1533 1537 1539 1541 1542 1542 1544 1545 1545 1546 1547
1507 1504 1505 1504 1502 1501 1501 1500 1504 1510 1514 1525 1502 1512 1501 1488 1479 1475 1474 1474 1476 1480 1483 1488 1492 1496 1502 1510 1513 1510 1518 1526 1529 1531 1534 1536 1538 1540 1541 1541 1542 1544 1545 1545
1512 1505 1504 1505 1505 1501 1503 1513 1531 1526 1533 1521 1509 1519 1493 1475 1473 1474 1473 1471 1472 1475 1479 1482 1485 1489 1497 1504 1511 1511 1511 1522 1526 1529 1532 1533 1535 1538 1538 1539 1541 1542 1543 1542
1528 1524 1505 1504 1506 1508 1504 1509 1528 1517 1527 1519 1507 1507 1488 1472 1472 1472 1472 1470 1468 1470 1473 1478 1481 1487 1494 1501 1507 1510 1512 1517 1523 1526 1529 1530 1533 1536 1536 1537 1538 1540 1540 1540
1522 1515 1504 1504 1503 1506 1506 1510 1507 1516 1521 1520 1510 1494 1476 1471 1471 1470 1470 1468 1466 1466 1469 1474 1479 1485 1492 1499 1505 1508 1511 1516 1521 1524 1526 1528 1530 1534 1534 1535 1536 1537 1538 1538
1515 1521 1505 1503 1504 1504 1505 1509 1512 1522 1511 1511 1509 1503 1492 1473 1470 1469 1470 1468 1468 1468 1471 1476 1480 1486 1493 1499 1503 1507 1511 1515 1518 1521 1524 1525 1530 1531 1531 1533 1534 1535 1536 1536
1514 1519 1511 1506 1505 1504 1508 1507 1509 1512 1514 1509 1512 1501 1478 1473 1469 1469 1468 1469 1470 1471 1474 1478 1483 1487 1492 1497 1501 1505 1509 1512 1516 1519 1521 1524 1527 1528 1530 1531 1533 1533 1534 1534
1515 1519 1521 1507 1501 1501 1501 1501 1503 1515 1505 1515 1513 1498 1469 1469 1468 1467 1468 1469 1471 1474 1477 1480 1483 1487 1491 1495 1499 1502 1506 1510 1514 1517 1519 1523 1526 1527 1528 1529 1530 1531 1532 1532
1513 1518 1527 1505 1505 1502 1502 1501 1501 1504 1508 1507 1507 1489 1470 1468 1467 1467 1468 1469 1471 1473 1475 1479 1482 1485 1489 1493 1497 1501 1504 1508 1512 1515 1519 1522 1524 1525 1526 1527 1528 1529 1530 1530
1513 1515 1514 1518 1503 1502 1501 1498 1498 1502 1517 1499 1493 1481 1470 1468 1468 1468 1468 1469 1471 1473 1475 1477 1481 1485 1488 1492 1496 1499 1503 1508 1512 1515 1518 1520 1522 1523 1525 1526 1527 1528 1528 1528
1514 1514 1514 1506 1504 1504 1499 1495 1497 1503 1494 1493 1474 1480 1469 1468 1467 1466 1468 1471 1473 1475 1477 1479 1481 1484 1488 1491 1496 1500 1504 1508 1511 1514 1516 1518 1520 1522 1523 1525 1526 1526 1526 1526
1512 1513 1509 1501 1492 1496 1494 1488 1489 1491 1488 1487 1485 1473 1465 1462 1462 1463 1463 1466 1469 1473 1476 1479 1482 1485 1488 1492 1496 1500 1504 1507 1510 1513 1515 1517 1519 1521 1523 1524 1524 1524 1523 1522
1510 1513 1511 1503 1493 1491 1485 1476 1478 1476 1477 1472 1477 1458 1458 1459 1458 1457 1458 1461 1464 1468 1473 1477 1480 1484 1488 1492 1496 1499 1503 1506 1509 1512 1514 1517 1518 1520 1521 1521 1521 1521 1520 1518
1509 1510 1512 1509 1500 1497 1469 1464 1466 1469 1465 1465 1462 1459 1458 1457 1455 1454 1454 1457 1462 1467 1470 1475 1479 1483 1488 1492 1496 1499 1502 1505 1508 1511 1513 1515 1516 1517 1518 1518 1517 1516 1515 1513
1504 1507 1509 1506 1505 1484 1463 1464 1465 1465 1462 1460 1461 1458 1457 1457 1456 1454 1453 1455 1458 1462 1467 1472 1478 1482 1486 1490 1494 1498 1502 1505 1507 1509 1511 1513 1514 1515 1515 1514 1513 1511 1509 1507
1502 1505 1508 1512 1504 1486 1459 1461 1462 1463 1468 1458 1458 1457 1456 1457 1460 1455 1453 1454 1458 1462 1466 1470 1476 1481 1485 1489 1493 1496 1500 1503 1506 1508 1510 1511 1512 1512 1511 1510 1509 1507 1504 1502
1503 1506 1506 1506 1507 1485 1460 1460 1462 1468 1465 1453 1454 1454 1455 1457 1454 1452 1452 1452 1456 1460 1464 1470 1475 1479 1484 1488 1491 1495 1499 1502 1504 1506 1507 1508 1508 1508 1507 1506 1503 1502 1500 1498
1486 1496 1501 1504 1503 1489 1456 1461 1464 1454 1451 1452 1452 1451 1450 1450 1450 1450 1450 1451 1453 1457 1462 1468 1473 1479 1484 1489 1492 1495 1498 1500 1502 1504 1505 1505 1504 1503 1503 1502 1500 1497 1494 1491
1477 1464 1467 1472 1462 1447 1448 1445 1447 1446 1445 1447 1448 1448 1447 1446 1446 1447 1448 1450 1453 1456 1461 1467 1473 1478 1483 1486 1490 1493 1495 1497 1499 1500 1501 1501 1500 1499 1498 1495 1494 1492 1490 1486
1459 1456 1458 1457 1443 1442 1441 1442 1443 1443 1441 1442 1442 1444 1444 1443 1444 1445 1447 1449 1452 1456 1460 1466 1471 1475 1480 1484 1488 1491 1493 1494 1496 1497 1498 1498 1497 1495 1493 1490 1488 1486 1484 1481
1450 1451 1451 1443 1434 1437 1435 1435 1436 1436 1436 1437 1437 1438 1438 1440 1441 1442 1445 1448 1451 1455 1460 1464 1469 1473 1477 1482 1485 1489 1490 1492 1492 1493 1493 1493 1492 1491 1488 1485 1482 1480 1478 1475
1438 1438 1441 1429 1425 1430 1427 1429 1430 1430 1430 1431 1432 1433 1433 1435 1437 1439 1443 1446 1450 1453 1458 1463 1468 1471 1475 1479 1483 1486 1487 1488 1488 1490 1489 1488 1487 1485 1482 1479 1477 1476 1474 1471